• Join FlightAware (Why Join?)
  • Login
  • US Flag 
02:02AM EST


 

Airport Tracker/Info


-or-


 

Live Flight TrackerFlight Track Log ✈ SWA3481 ✈ 23-May-2012 ✈ KBUR - KSMF

Flight Track Log - Related Links

Times and Time Zones

All times are in EDT time to prevent confusion due to time zone crossing. See the SWA3481 flight status page for this flight to view local times or setup timezone preferences in your user account.

Time Position Orientation Groundspeed Altitude Reporting Facility
EDT Latitude Longitude Course Direction KTS MPH feet Rate Location/Type
12:46AM 34.2019 -118.4042 318° Northwest 180 207 2,800  Level Los Angeles Center
12:51AM 34.4736 -118.7014 337° Northwest 296 341 19,800 3,300 Climbing Los Angeles Center
12:52AM 34.5458 -118.7389 338° Northwest 302 348 22,700 3,000 Climbing Los Angeles Center
12:53AM 34.6347 -118.7822 337° Northwest 326 375 25,900 2,400 Climbing Los Angeles Center
12:54AM 34.7294 -118.8308 339° North 344 396 27,500 1,920 Climbing Los Angeles Center
12:55AM 34.8389 -118.8825 343° North 394 453 29,800 2,220 Climbing Los Angeles Center
12:56AM 34.9547 -118.9269 339° North 420 483 32,000 2,640 Climbing Los Angeles Center
12:57AM 35.0683 -118.9789 340° North 432 497 35,100 1,980 Climbing Los Angeles Center
12:58AM 35.1778 -119.0283 340° North 426 490 36,000 780 Climbing Los Angeles Center
12:59AM 35.2914 -119.0783 340° North 426 490 36,700 1,500 Climbing Los Angeles Center
01:00AM 35.3989 -119.1256 339° North 426 490 39,100 1,080 Climbing Los Angeles Center
01:02AM 35.6158 -119.2267 340° North 419 482 40,000 240 Climbing Oakland Center
01:03AM 35.7231 -119.2753 340° North 412 474 40,000  Level Oakland Center
01:04AM 35.8300 -119.3242 341° North 412 474 40,000  Level Oakland Center
01:05AM 35.9328 -119.3683 339° North 407 468 40,000  Level Oakland Center
01:06AM 36.0525 -119.4247 340° North 412 474 40,000  Level Oakland Center
01:07AM 36.1594 -119.4742 339° North 412 474 40,000  Level Oakland Center
01:08AM 36.2625 -119.5236 340° North 412 474 40,000  Level Oakland Center
01:09AM 36.3694 -119.5731 339° North 412 474 40,000  Level Oakland Center
01:10AM 36.4742 -119.6228 338° Northwest 412 474 40,000  Level Oakland Center
01:11AM 36.5708 -119.6703 339° North 412 474 40,000  Level Oakland Center
01:12AM 36.6756 -119.7203 340° North 412 474 40,000  Level Oakland Center
01:13AM 36.7931 -119.7728 335° Northwest 418 481 40,000  Level Oakland Center
01:14AM 36.9000 -119.8361 322° Northwest 412 474 40,000 -360 Level Oakland Center
01:15AM 36.9822 -119.9153 321° Northwest 398 458 39,300 -1,320 Descending Oakland Center
01:16AM 37.0747 -120.0078 322° Northwest 393 452 37,400 -1,500 Descending Oakland Center
01:17AM 37.1589 -120.0900 321° Northwest 382 440 36,300 -1,980 Descending Oakland Center
01:18AM 37.2428 -120.1753 321° Northwest 382 440 33,500 -8,160 Descending Oakland Center
01:19AM 37.3289 -120.2631 322° Northwest 388 447 20,000 -4,980 Descending Oakland Center
01:20AM 37.4211 -120.3536 321° Northwest 408 470 23,600 480 Climbing Oakland Center
01:21AM 37.4947 -120.4289 332° Northwest 396 456 21,000 -2,400 Descending Oakland Center
01:21AM 37.5500 -120.4667 315° West 360 414 20,000 -600 Descending Northern Cal TRACON
01:22AM 37.6167 -120.5500 322° Northwest 354 407 20,100 -480 Climbing Northern Cal TRACON
01:23AM 37.7000 -120.6333 322° Northwest 356 410 19,100 -1,080 Descending Northern Cal TRACON
01:24AM 37.7667 -120.7000 328° Northwest 321 369 18,000 -1,140 Descending Northern Cal TRACON
01:25AM 37.8500 -120.7667 322° Northwest 314 361 16,900 -1,020 Descending Northern Cal TRACON
01:26AM 37.9167 -120.8333 322° Northwest 306 352 16,000 -1,020 Descending Northern Cal TRACON
01:27AM 37.9833 -120.9000 315° West 309 356 14,900 -1,080 Descending Northern Cal TRACON
01:28AM 38.0500 -120.9833 322° Northwest 318 366 13,900 -1,020 Descending Northern Cal TRACON
01:29AM 38.1167 -121.0500 307° West 310 357 12,900 -1,020 Descending Northern Cal TRACON
01:30AM 38.1667 -121.1333 307° West 298 343 11,900 -1,200 Descending Northern Cal TRACON
01:31AM 38.2167 -121.2167 314° West 301 346 10,600 -1,260 Descending Northern Cal TRACON
01:32AM 38.2667 -121.2833 330° Northwest 275 316 9,400 -1,620 Descending Northern Cal TRACON
01:33AM 38.3333 -121.3333 322° Northwest 268 308 7,400 -1,860 Descending Northern Cal TRACON
01:34AM 38.4000 -121.4000 322° Northwest 262 302 5,700 -1,620 Descending Northern Cal TRACON
01:35AM 38.4500 -121.4500 330° Northwest 258 297 4,200 -1,680 Descending Northern Cal TRACON
01:37AM 38.5167 -121.5000 322° Northwest 246 283 2,400 -1,140 Descending Northern Cal TRACON
01:38AM 38.5667 -121.5500 322° Northwest 219 252 2,000 -360 Descending Northern Cal TRACON
01:39AM 38.6000 -121.5833 339° North 146 168 1,700 -480 Descending Northern Cal TRACON
01:39AM 38.6333 -121.6000 360° North 116 133 1,100 -600 Descending Northern Cal TRACON
01:41AM 38.6667 -121.6000 360° North 112 129 500 -480 Descending Northern Cal TRACON
01:42AM 38.7000 -121.6000 360° North 122 140 100 -420 Descending Northern Cal TRACON